GEFSCGP_prec_meanprecacc_246.txt.gz
Total_Precipitation_Accumulation
0.01 0.03 0.03 0.04 0.07 0.08 0.08 0.17 0.21 0.22 0.24 0.29 0.39 0.51 0.71 0.80 0.96 1.08 1.08 1.18 1.30 1.45 1.86 2.21 2.74 3.62 4.12 4.75 4.65 4.22 3.88 3.72 3.67 3.60 3.62 3.64 3.77 3.96 4.03 3.96 3.72 3.62 3.55 3.54
0.01 0.02 0.01 0.02 0.05 0.06 0.07 0.12 0.16 0.25 0.31 0.35 0.51 0.64 0.85 0.97 1.04 1.13 1.15 1.29 1.28 1.38 1.99 2.57 3.01 3.49 3.72 3.84 4.10 4.36 4.28 4.17 3.94 3.85 4.12 4.56 4.81 4.78 4.79 4.68 4.56 4.37 4.25 4.16
0.02 0.01 0.01 0.02 0.04 0.04 0.06 0.09 0.12 0.24 0.35 0.49 0.69 0.93 1.03 1.11 1.26 1.24 1.17 1.21 1.26 1.44 1.81 2.40 2.92 3.24 3.58 3.84 3.94 4.21 4.29 4.39 4.52 4.68 4.87 5.27 5.60 5.50 5.27 4.83 4.61 4.43 4.17 4.03
0.01 0.01 0.01 0.03 0.02 0.04 0.07 0.07 0.12 0.19 0.29 0.48 0.66 1.07 1.22 1.27 1.36 1.40 1.44 1.42 1.41 1.58 1.79 2.11 2.51 2.71 3.04 3.30 3.58 3.88 4.07 4.28 4.73 5.39 5.74 5.73 5.78 5.62 5.36 4.99 4.62 4.29 4.00 3.76
0.02 0.01 0.01 0.02 0.03 0.04 0.05 0.06 0.10 0.15 0.20 0.44 0.56 0.84 1.34 1.42 1.48 1.50 1.56 1.61 1.61 1.62 1.76 1.91 1.95 2.21 2.60 2.80 3.01 3.41 3.86 4.29 4.91 5.46 5.78 5.98 5.84 5.52 5.26 4.83 4.44 4.08 3.79 3.47
0.02 0.02 0.02 0.03 0.04 0.04 0.05 0.07 0.12 0.18 0.28 0.53 0.49 0.68 1.35 1.58 1.59 1.48 1.50 1.60 1.60 1.55 1.61 1.70 1.78 1.90 2.14 2.37 2.61 2.86 3.46 4.17 4.57 4.95 5.31 5.46 5.47 5.32 5.00 4.57 4.22 3.89 3.57 3.24
0.06 0.05 0.03 0.04 0.05 0.07 0.10 0.19 0.41 0.57 0.64 0.61 0.43 0.75 1.45 1.69 1.68 1.60 1.62 1.77 1.63 1.43 1.47 1.70 1.74 1.77 1.99 2.21 2.59 2.88 3.29 3.85 4.14 4.21 4.39 4.66 4.75 4.68 4.57 4.38 4.07 3.69 3.23 2.81
0.14 0.12 0.06 0.05 0.07 0.09 0.11 0.19 0.50 0.75 0.72 0.66 0.65 1.19 1.73 1.77 1.69 1.63 1.57 1.63 1.64 1.56 1.62 1.69 1.73 1.81 2.00 2.15 2.30 2.65 2.91 3.40 3.67 3.55 3.61 3.84 4.01 3.97 3.85 3.62 3.25 2.91 2.59 2.32
0.18 0.17 0.07 0.06 0.08 0.09 0.13 0.16 0.23 0.43 0.50 0.71 1.07 1.64 2.05 2.09 1.99 1.86 1.73 1.59 1.54 1.52 1.59 1.67 1.64 1.71 1.88 2.03 2.21 2.33 2.41 2.76 3.04 2.97 2.95 2.92 2.92 2.94 2.85 2.70 2.48 2.24 2.00 1.78
0.13 0.18 0.10 0.08 0.10 0.12 0.14 0.17 0.26 0.47 0.70 0.95 1.23 1.83 2.51 2.50 2.24 2.00 1.84 1.58 1.53 1.42 1.44 1.53 1.59 1.60 1.55 1.61 1.85 2.05 2.03 2.11 2.21 2.14 2.15 2.17 2.21 2.29 2.23 2.01 1.83 1.73 1.63 1.47
0.13 0.20 0.17 0.15 0.17 0.21 0.21 0.24 0.27 0.40 0.55 0.85 1.27 1.89 2.15 2.30 2.17 1.93 1.76 1.57 1.39 1.31 1.37 1.42 1.48 1.51 1.39 1.30 1.36 1.61 1.76 1.71 1.72 1.75 1.81 1.78 1.75 1.72 1.70 1.61 1.46 1.40 1.34 1.23
0.18 0.24 0.28 0.25 0.20 0.18 0.21 0.24 0.29 0.50 0.56 0.64 1.10 1.88 1.97 2.23 2.27 2.13 1.88 1.70 1.64 1.49 1.48 1.50 1.59 1.50 1.40 1.37 1.35 1.42 1.53 1.56 1.50 1.45 1.58 1.63 1.55 1.45 1.40 1.32 1.25 1.18 1.12 1.09
0.21 0.36 0.55 0.63 0.49 0.31 0.26 0.27 0.30 0.36 0.51 0.71 1.20 2.01 2.10 2.13 2.18 2.10 1.85 1.79 1.80 1.73 1.72 1.68 1.64 1.49 1.42 1.44 1.36 1.29 1.33 1.37 1.33 1.24 1.30 1.34 1.31 1.23 1.16 1.13 1.16 1.08 1.03 0.98
0.22 0.39 0.64 0.97 0.84 0.51 0.39 0.34 0.34 0.42 0.66 0.83 1.13 1.65 1.98 1.96 2.05 2.15 2.03 1.82 1.76 1.77 1.76 1.67 1.63 1.55 1.47 1.44 1.34 1.28 1.23 1.16 1.08 1.06 1.11 1.13 1.15 1.14 1.08 1.01 1.00 0.99 0.97 0.94
0.31 0.49 0.46 0.47 0.48 0.46 0.43 0.40 0.41 0.50 0.59 0.90 1.19 1.60 1.96 1.91 2.05 2.29 2.23 2.03 1.86 1.83 1.81 1.72 1.69 1.67 1.61 1.58 1.46 1.35 1.25 1.19 1.11 1.07 1.03 1.05 1.12 1.13 1.10 1.09 1.05 0.99 0.93 0.88
0.36 0.49 0.49 0.45 0.41 0.44 0.48 0.51 0.46 0.51 0.64 0.91 1.26 1.76 1.92 1.96 2.01 2.12 2.22 2.10 1.96 1.95 2.02 2.04 2.04 1.99 1.90 1.80 1.64 1.48 1.35 1.21 1.13 1.13 1.09 1.08 1.08 1.04 1.03 1.03 1.00 0.97 0.92 0.89
0.36 0.50 0.61 0.55 0.39 0.61 0.92 0.79 0.70 0.71 0.80 1.02 1.35 1.59 1.63 1.74 1.93 1.99 2.07 2.19 2.13 2.21 2.34 2.41 2.36 2.26 2.10 1.98 1.88 1.71 1.52 1.36 1.30 1.24 1.15 1.10 1.05 0.96 0.92 0.86 0.86 0.90 0.88 0.83
0.39 0.50 0.59 0.64 0.72 1.24 1.21 0.81 0.76 0.87 1.01 1.08 1.14 1.19 1.40 1.62 1.76 1.83 2.02 2.26 2.31 2.30 2.24 2.29 2.24 2.23 2.12 2.01 1.89 1.74 1.53 1.42 1.30 1.19 1.09 1.03 0.98 0.93 0.91 0.90 0.88 0.86 0.85 0.78
0.25 0.44 0.67 0.82 1.14 1.31 1.25 0.88 0.88 1.07 1.35 1.17 1.15 1.12 1.27 1.36 1.57 1.91 1.99 2.12 2.33 2.20 2.10 2.15 2.19 2.20 2.15 2.04 1.85 1.67 1.52 1.36 1.28 1.16 1.01 0.93 0.87 0.81 0.79 0.82 0.82 0.80 0.79 0.75
0.26 0.40 0.77 1.01 1.35 1.59 1.47 0.87 0.71 1.08 1.92 1.48 1.32 1.29 1.30 1.43 1.83 1.95 1.80 1.77 1.87 1.93 2.02 2.11 2.19 2.24 2.17 2.06 1.77 1.58 1.43 1.25 1.12 0.94 0.83 0.80 0.80 0.74 0.72 0.71 0.72 0.70 0.71 0.71
0.66 0.68 0.86 1.13 1.54 1.67 1.08 0.68 0.76 1.52 1.96 1.59 1.47 1.38 1.40 1.59 1.73 1.57 1.49 1.57 1.70 1.85 1.97 2.03 2.04 2.02 2.00 1.91 1.68 1.54 1.38 1.22 0.99 0.80 0.72 0.75 0.75 0.67 0.63 0.65 0.66 0.65 0.62 0.63
0.96 1.10 1.18 1.31 1.68 1.81 0.90 0.71 1.05 1.33 1.17 1.14 1.16 1.12 1.15 1.22 1.28 1.31 1.37 1.42 1.47 1.57 1.74 1.83 1.84 1.83 1.73 1.62 1.49 1.38 1.25 1.05 0.85 0.74 0.70 0.74 0.74 0.54 0.47 0.57 0.59 0.58 0.63 0.62
0.95 1.08 1.29 1.49 1.77 1.42 0.90 0.85 0.83 0.90 0.94 0.90 0.96 0.92 0.93 1.01 1.07 1.20 1.34 1.40 1.41 1.37 1.48 1.52 1.44 1.35 1.36 1.34 1.23 1.13 1.04 0.87 0.76 0.71 0.72 0.71 0.65 0.54 0.48 0.53 0.55 0.58 0.63 0.60
1.06 0.91 1.13 1.32 1.39 1.14 0.87 0.79 0.73 0.63 0.62 0.67 0.82 0.85 0.83 0.82 0.81 0.93 1.06 1.16 1.21 1.18 1.17 1.17 1.14 1.05 1.01 1.02 0.98 0.89 0.77 0.73 0.74 0.75 0.74 0.72 0.66 0.55 0.47 0.49 0.47 0.48 0.51 0.51
1.04 1.03 1.22 1.38 1.39 1.18 1.00 0.84 0.71 0.63 0.61 0.67 0.71 0.69 0.66 0.60 0.61 0.65 0.78 0.87 0.91 0.92 0.87 0.86 0.91 0.87 0.77 0.74 0.73 0.71 0.65 0.63 0.70 0.71 0.66 0.63 0.55 0.51 0.50 0.44 0.33 0.31 0.32 0.32
0.88 1.01 1.27 1.45 1.25 1.18 1.07 0.83 0.66 0.63 0.62 0.58 0.55 0.52 0.54 0.53 0.52 0.55 0.67 0.75 0.77 0.76 0.73 0.75 0.79 0.75 0.70 0.67 0.63 0.58 0.51 0.51 0.60 0.65 0.62 0.55 0.49 0.47 0.44 0.47 0.37 0.27 0.23 0.22

GEFSCGP_prec_meanprecacc_252.txt.gz
Total_Precipitation_Accumulation
0.01 0.03 0.03 0.04 0.07 0.08 0.08 0.17 0.21 0.22 0.24 0.29 0.39 0.52 0.71 0.80 0.97 1.08 1.08 1.19 1.31 1.46 1.87 2.24 2.78 3.65 4.14 4.80 4.76 4.36 3.99 3.80 3.71 3.64 3.65 3.69 3.83 4.00 4.08 4.02 3.78 3.66 3.58 3.57
0.02 0.02 0.01 0.02 0.05 0.06 0.07 0.12 0.16 0.25 0.31 0.36 0.52 0.65 0.86 0.97 1.05 1.13 1.15 1.30 1.29 1.39 2.01 2.60 3.04 3.51 3.75 3.87 4.14 4.41 4.33 4.23 4.00 3.89 4.15 4.59 4.85 4.83 4.82 4.73 4.61 4.42 4.28 4.21
0.02 0.01 0.01 0.02 0.04 0.04 0.06 0.09 0.12 0.24 0.35 0.49 0.70 0.95 1.05 1.13 1.27 1.24 1.18 1.23 1.28 1.46 1.83 2.42 2.94 3.26 3.61 3.86 3.97 4.24 4.33 4.43 4.57 4.73 4.91 5.30 5.63 5.53 5.29 4.87 4.67 4.48 4.22 4.11
0.01 0.01 0.01 0.03 0.02 0.04 0.07 0.07 0.12 0.19 0.30 0.50 0.67 1.10 1.25 1.29 1.37 1.41 1.45 1.43 1.43 1.60 1.81 2.13 2.53 2.73 3.06 3.33 3.61 3.90 4.08 4.30 4.77 5.44 5.78 5.78 5.83 5.67 5.41 5.04 4.68 4.34 4.06 3.82
0.02 0.01 0.01 0.02 0.03 0.04 0.05 0.06 0.10 0.16 0.21 0.45 0.57 0.86 1.37 1.44 1.50 1.52 1.58 1.64 1.64 1.64 1.79 1.93 1.97 2.23 2.63 2.83 3.03 3.44 3.88 4.31 4.96 5.52 5.83 6.01 5.88 5.58 5.33 4.88 4.49 4.13 3.84 3.52
0.03 0.02 0.03 0.03 0.04 0.04 0.05 0.08 0.14 0.19 0.29 0.54 0.50 0.70 1.38 1.61 1.61 1.50 1.53 1.64 1.63 1.57 1.64 1.73 1.81 1.93 2.17 2.39 2.64 2.89 3.50 4.21 4.62 5.00 5.35 5.49 5.53 5.39 5.08 4.64 4.29 3.94 3.62 3.28
0.07 0.05 0.04 0.04 0.06 0.07 0.11 0.22 0.43 0.59 0.66 0.63 0.44 0.77 1.49 1.72 1.70 1.62 1.64 1.81 1.66 1.46 1.50 1.73 1.77 1.81 2.02 2.24 2.61 2.90 3.32 3.88 4.17 4.24 4.43 4.71 4.82 4.75 4.64 4.47 4.15 3.75 3.29 2.84
0.15 0.13 0.06 0.05 0.08 0.09 0.11 0.23 0.53 0.77 0.74 0.68 0.67 1.21 1.75 1.79 1.71 1.64 1.59 1.68 1.67 1.59 1.64 1.71 1.75 1.84 2.02 2.17 2.32 2.68 2.93 3.43 3.70 3.58 3.65 3.91 4.09 4.03 3.91 3.69 3.32 2.98 2.65 2.37
0.19 0.18 0.07 0.07 0.08 0.09 0.13 0.19 0.26 0.45 0.51 0.73 1.09 1.65 2.08 2.11 2.01 1.87 1.75 1.64 1.59 1.57 1.62 1.69 1.66 1.73 1.90 2.05 2.22 2.35 2.43 2.78 3.07 3.02 3.02 3.00 3.01 3.00 2.91 2.76 2.53 2.29 2.06 1.83
0.14 0.19 0.12 0.09 0.11 0.13 0.15 0.19 0.29 0.50 0.73 0.97 1.25 1.85 2.54 2.51 2.26 2.02 1.86 1.62 1.59 1.48 1.48 1.57 1.60 1.63 1.57 1.61 1.85 2.06 2.04 2.13 2.25 2.22 2.24 2.24 2.27 2.35 2.28 2.06 1.88 1.78 1.69 1.52
0.13 0.21 0.19 0.17 0.20 0.23 0.23 0.26 0.29 0.41 0.56 0.87 1.29 1.91 2.17 2.32 2.19 1.97 1.80 1.61 1.46 1.38 1.42 1.45 1.50 1.53 1.40 1.31 1.37 1.62 1.78 1.73 1.77 1.84 1.90 1.84 1.80 1.77 1.75 1.65 1.51 1.46 1.40 1.28
0.18 0.26 0.31 0.27 0.22 0.19 0.22 0.26 0.31 0.52 0.58 0.66 1.12 1.90 1.98 2.25 2.30 2.16 1.91 1.73 1.69 1.54 1.54 1.52 1.61 1.52 1.41 1.38 1.36 1.44 1.56 1.59 1.55 1.55 1.68 1.70 1.62 1.50 1.45 1.38 1.31 1.23 1.17 1.13
0.21 0.37 0.57 0.65 0.51 0.33 0.27 0.28 0.31 0.37 0.52 0.73 1.23 2.04 2.11 2.15 2.20 2.12 1.88 1.81 1.82 1.78 1.77 1.70 1.65 1.50 1.43 1.45 1.38 1.31 1.36 1.40 1.39 1.34 1.40 1.44 1.38 1.29 1.22 1.19 1.20 1.12 1.06 1.02
0.23 0.41 0.66 0.99 0.86 0.52 0.40 0.35 0.35 0.43 0.67 0.84 1.15 1.67 2.00 1.99 2.07 2.16 2.05 1.83 1.78 1.80 1.80 1.69 1.65 1.57 1.49 1.46 1.36 1.31 1.26 1.19 1.14 1.17 1.21 1.23 1.24 1.21 1.14 1.07 1.05 1.03 1.00 0.97
0.32 0.50 0.47 0.48 0.49 0.46 0.43 0.41 0.42 0.51 0.59 0.91 1.21 1.63 1.98 1.93 2.08 2.31 2.25 2.05 1.88 1.86 1.84 1.74 1.71 1.69 1.63 1.59 1.47 1.37 1.28 1.25 1.19 1.14 1.10 1.12 1.19 1.20 1.14 1.12 1.09 1.05 0.97 0.91
0.36 0.50 0.49 0.46 0.41 0.44 0.48 0.51 0.47 0.51 0.64 0.92 1.28 1.78 1.93 1.97 2.03 2.14 2.24 2.13 1.97 1.97 2.04 2.07 2.06 2.00 1.92 1.82 1.66 1.50 1.39 1.28 1.20 1.19 1.14 1.13 1.14 1.10 1.07 1.07 1.03 1.01 0.95 0.92
0.37 0.50 0.61 0.56 0.40 0.61 0.93 0.79 0.71 0.71 0.81 1.03 1.37 1.61 1.64 1.75 1.95 2.02 2.10 2.22 2.15 2.23 2.36 2.43 2.38 2.28 2.12 2.00 1.90 1.74 1.57 1.43 1.36 1.30 1.20 1.15 1.10 1.01 0.95 0.89 0.88 0.93 0.93 0.87
0.39 0.51 0.60 0.66 0.73 1.25 1.23 0.81 0.77 0.87 1.01 1.09 1.16 1.21 1.44 1.66 1.80 1.85 2.05 2.29 2.32 2.31 2.26 2.30 2.26 2.26 2.15 2.03 1.92 1.77 1.57 1.46 1.34 1.25 1.14 1.08 1.02 0.96 0.93 0.92 0.90 0.89 0.88 0.82
0.25 0.45 0.69 0.84 1.15 1.32 1.26 0.88 0.88 1.07 1.36 1.17 1.17 1.16 1.31 1.41 1.59 1.93 2.01 2.14 2.34 2.22 2.12 2.17 2.21 2.22 2.17 2.07 1.88 1.71 1.55 1.40 1.32 1.21 1.05 0.95 0.89 0.83 0.81 0.85 0.85 0.83 0.81 0.76
0.27 0.41 0.78 1.02 1.36 1.60 1.48 0.87 0.71 1.09 1.93 1.49 1.34 1.32 1.32 1.45 1.85 1.97 1.81 1.79 1.88 1.96 2.05 2.15 2.23 2.27 2.19 2.09 1.80 1.62 1.45 1.27 1.14 0.98 0.85 0.81 0.81 0.75 0.73 0.73 0.74 0.72 0.73 0.72
0.68 0.70 0.87 1.14 1.55 1.69 1.09 0.68 0.76 1.54 1.98 1.60 1.49 1.39 1.41 1.60 1.75 1.59 1.50 1.59 1.72 1.87 2.00 2.07 2.06 2.04 2.02 1.93 1.70 1.56 1.40 1.23 1.01 0.81 0.73 0.77 0.76 0.68 0.64 0.66 0.67 0.66 0.63 0.65
0.98 1.12 1.20 1.32 1.70 1.83 0.91 0.72 1.06 1.35 1.18 1.15 1.17 1.13 1.16 1.24 1.29 1.33 1.38 1.43 1.48 1.60 1.76 1.86 1.88 1.87 1.76 1.65 1.51 1.39 1.26 1.06 0.86 0.75 0.71 0.75 0.75 0.55 0.47 0.57 0.59 0.60 0.65 0.64
0.96 1.10 1.30 1.51 1.78 1.44 0.92 0.87 0.86 0.92 0.95 0.92 0.97 0.94 0.95 1.03 1.10 1.22 1.36 1.41 1.42 1.39 1.50 1.54 1.46 1.38 1.39 1.36 1.24 1.14 1.04 0.88 0.77 0.73 0.73 0.71 0.66 0.55 0.49 0.54 0.56 0.60 0.64 0.62
1.07 0.93 1.14 1.33 1.40 1.15 0.88 0.80 0.74 0.64 0.64 0.69 0.84 0.87 0.84 0.83 0.82 0.95 1.08 1.18 1.23 1.20 1.18 1.19 1.16 1.07 1.03 1.03 0.98 0.90 0.77 0.74 0.74 0.76 0.75 0.72 0.66 0.56 0.49 0.51 0.48 0.49 0.52 0.52
1.05 1.04 1.23 1.39 1.40 1.19 1.00 0.84 0.71 0.64 0.62 0.68 0.72 0.70 0.66 0.61 0.62 0.66 0.79 0.88 0.93 0.93 0.89 0.87 0.93 0.89 0.78 0.75 0.74 0.71 0.65 0.63 0.72 0.72 0.67 0.64 0.56 0.53 0.52 0.46 0.35 0.33 0.34 0.33
0.89 1.02 1.28 1.46 1.26 1.19 1.08 0.84 0.67 0.63 0.63 0.59 0.55 0.52 0.54 0.53 0.53 0.56 0.68 0.76 0.78 0.78 0.75 0.77 0.80 0.76 0.70 0.67 0.64 0.59 0.52 0.52 0.62 0.67 0.63 0.56 0.49 0.48 0.45 0.48 0.38 0.29 0.26 0.24

GEFSCGP_prec_meanprecacc_258.txt.gz
Total_Precipitation_Accumulation
0.01 0.03 0.04 0.04 0.07 0.09 0.09 0.18 0.22 0.23 0.24 0.29 0.40 0.55 0.72 0.81 0.98 1.11 1.13 1.22 1.33 1.48 1.89 2.27 2.83 3.73 4.24 4.93 4.91 4.48 4.10 3.91 3.81 3.71 3.70 3.74 3.88 4.05 4.12 4.05 3.80 3.69 3.62 3.61
0.02 0.02 0.02 0.02 0.06 0.06 0.08 0.13 0.17 0.25 0.31 0.36 0.53 0.68 0.86 0.98 1.06 1.14 1.16 1.31 1.30 1.41 2.02 2.62 3.08 3.57 3.83 3.97 4.25 4.52 4.45 4.36 4.10 4.00 4.23 4.66 4.91 4.87 4.86 4.76 4.65 4.45 4.31 4.24
0.02 0.01 0.01 0.02 0.04 0.04 0.07 0.10 0.13 0.25 0.36 0.50 0.72 0.99 1.08 1.15 1.30 1.25 1.18 1.23 1.28 1.46 1.84 2.44 2.96 3.30 3.68 3.94 4.04 4.31 4.41 4.52 4.65 4.82 4.98 5.36 5.67 5.56 5.32 4.91 4.71 4.51 4.24 4.14
0.01 0.01 0.01 0.03 0.03 0.05 0.08 0.08 0.12 0.19 0.32 0.54 0.70 1.16 1.31 1.32 1.40 1.43 1.46 1.44 1.44 1.61 1.82 2.15 2.54 2.77 3.12 3.38 3.67 3.97 4.15 4.36 4.83 5.50 5.84 5.82 5.87 5.71 5.45 5.08 4.73 4.39 4.10 3.87
0.02 0.01 0.03 0.03 0.03 0.04 0.06 0.06 0.10 0.17 0.25 0.51 0.60 0.93 1.44 1.48 1.55 1.56 1.61 1.65 1.65 1.65 1.80 1.95 1.98 2.26 2.66 2.87 3.09 3.50 3.94 4.36 5.00 5.56 5.87 6.07 5.95 5.64 5.38 4.92 4.54 4.18 3.88 3.56
0.03 0.03 0.03 0.04 0.05 0.04 0.05 0.09 0.15 0.20 0.34 0.64 0.55 0.76 1.48 1.68 1.68 1.57 1.57 1.66 1.64 1.59 1.65 1.75 1.83 1.95 2.20 2.43 2.69 2.94 3.54 4.25 4.66 5.05 5.40 5.55 5.61 5.47 5.13 4.67 4.33 3.99 3.66 3.33
0.07 0.06 0.04 0.05 0.06 0.07 0.11 0.26 0.49 0.64 0.73 0.70 0.46 0.80 1.58 1.80 1.75 1.66 1.66 1.83 1.67 1.47 1.51 1.74 1.79 1.83 2.05 2.28 2.65 2.95 3.35 3.92 4.22 4.29 4.48 4.78 4.91 4.85 4.73 4.53 4.21 3.82 3.35 2.89
0.15 0.14 0.07 0.06 0.09 0.11 0.12 0.26 0.59 0.83 0.81 0.74 0.70 1.26 1.80 1.85 1.74 1.67 1.61 1.69 1.68 1.60 1.66 1.73 1.77 1.87 2.05 2.20 2.36 2.72 2.98 3.49 3.76 3.64 3.72 3.99 4.17 4.14 4.01 3.79 3.40 3.04 2.71 2.42
0.21 0.19 0.08 0.07 0.09 0.09 0.14 0.21 0.29 0.51 0.58 0.80 1.16 1.71 2.11 2.14 2.03 1.90 1.77 1.65 1.61 1.59 1.64 1.72 1.69 1.75 1.92 2.07 2.26 2.38 2.48 2.85 3.15 3.09 3.09 3.10 3.10 3.10 3.01 2.86 2.61 2.36 2.11 1.88
0.15 0.20 0.12 0.09 0.12 0.14 0.16 0.20 0.31 0.57 0.83 1.08 1.34 1.93 2.59 2.55 2.30 2.05 1.89 1.63 1.60 1.50 1.50 1.59 1.62 1.65 1.59 1.64 1.89 2.10 2.09 2.19 2.32 2.32 2.33 2.31 2.36 2.44 2.37 2.14 1.95 1.85 1.75 1.58
0.14 0.23 0.20 0.18 0.21 0.24 0.25 0.27 0.31 0.46 0.62 0.96 1.39 1.97 2.20 2.35 2.24 2.00 1.82 1.62 1.47 1.40 1.46 1.53 1.57 1.56 1.43 1.33 1.40 1.67 1.82 1.78 1.82 1.94 2.00 1.90 1.88 1.85 1.82 1.72 1.58 1.54 1.47 1.36
0.18 0.28 0.35 0.28 0.22 0.20 0.24 0.28 0.34 0.59 0.64 0.74 1.22 1.96 2.00 2.27 2.32 2.19 1.94 1.75 1.71 1.58 1.58 1.58 1.68 1.56 1.44 1.42 1.41 1.48 1.59 1.62 1.59 1.60 1.74 1.76 1.68 1.56 1.52 1.45 1.38 1.30 1.24 1.18
0.22 0.41 0.64 0.69 0.53 0.33 0.28 0.29 0.33 0.40 0.56 0.79 1.32 2.11 2.14 2.16 2.22 2.15 1.91 1.84 1.86 1.83 1.81 1.73 1.68 1.54 1.48 1.49 1.42 1.34 1.38 1.42 1.42 1.38 1.44 1.48 1.43 1.34 1.28 1.25 1.26 1.17 1.09 1.05
0.24 0.44 0.72 1.05 0.89 0.53 0.41 0.35 0.36 0.45 0.71 0.89 1.21 1.73 2.04 2.01 2.09 2.19 2.08 1.86 1.83 1.86 1.83 1.72 1.68 1.60 1.53 1.50 1.39 1.34 1.29 1.22 1.17 1.20 1.24 1.27 1.28 1.25 1.18 1.11 1.09 1.07 1.03 1.01
0.33 0.53 0.50 0.51 0.50 0.47 0.43 0.41 0.42 0.52 0.61 0.94 1.25 1.67 2.02 1.95 2.09 2.33 2.28 2.09 1.94 1.90 1.87 1.76 1.74 1.72 1.66 1.62 1.50 1.39 1.30 1.26 1.21 1.17 1.12 1.16 1.22 1.23 1.18 1.16 1.13 1.09 1.01 0.95
0.37 0.52 0.52 0.47 0.42 0.44 0.49 0.52 0.47 0.51 0.65 0.95 1.31 1.82 1.95 1.98 2.04 2.17 2.27 2.18 2.03 2.00 2.06 2.10 2.09 2.03 1.94 1.85 1.68 1.52 1.40 1.29 1.22 1.20 1.16 1.17 1.18 1.14 1.12 1.12 1.08 1.06 1.01 0.97
0.38 0.53 0.65 0.59 0.40 0.63 0.95 0.80 0.72 0.72 0.82 1.05 1.40 1.64 1.65 1.76 1.97 2.05 2.14 2.27 2.20 2.27 2.38 2.45 2.40 2.30 2.15 2.04 1.93 1.76 1.60 1.47 1.40 1.32 1.21 1.19 1.16 1.07 1.02 0.96 0.95 1.00 0.99 0.93
0.41 0.54 0.64 0.69 0.76 1.30 1.25 0.81 0.77 0.88 1.02 1.09 1.18 1.23 1.45 1.68 1.83 1.88 2.08 2.33 2.38 2.36 2.29 2.32 2.28 2.29 2.18 2.07 1.95 1.79 1.60 1.49 1.37 1.27 1.17 1.12 1.10 1.03 1.00 0.99 0.98 0.97 0.94 0.87
0.27 0.48 0.73 0.88 1.20 1.36 1.28 0.88 0.89 1.08 1.37 1.18 1.18 1.17 1.33 1.43 1.61 1.95 2.04 2.17 2.39 2.27 2.15 2.19 2.24 2.25 2.19 2.09 1.91 1.73 1.58 1.44 1.36 1.25 1.09 1.00 0.95 0.89 0.88 0.92 0.92 0.89 0.87 0.82
0.28 0.42 0.82 1.07 1.40 1.66 1.52 0.88 0.72 1.10 1.97 1.51 1.36 1.34 1.35 1.48 1.88 2.01 1.85 1.82 1.92 2.00 2.09 2.17 2.26 2.29 2.22 2.11 1.82 1.66 1.49 1.32 1.17 1.01 0.89 0.85 0.85 0.79 0.78 0.79 0.79 0.76 0.78 0.77
0.70 0.73 0.91 1.18 1.59 1.72 1.11 0.69 0.77 1.59 2.04 1.62 1.50 1.42 1.45 1.64 1.81 1.63 1.53 1.61 1.74 1.90 2.02 2.09 2.09 2.07 2.04 1.96 1.73 1.60 1.44 1.28 1.03 0.84 0.76 0.78 0.78 0.70 0.66 0.69 0.70 0.69 0.66 0.68
1.00 1.16 1.23 1.36 1.74 1.88 0.92 0.73 1.09 1.40 1.20 1.16 1.18 1.14 1.18 1.26 1.32 1.35 1.40 1.45 1.50 1.62 1.78 1.88 1.91 1.90 1.80 1.68 1.54 1.42 1.29 1.07 0.87 0.76 0.72 0.76 0.76 0.56 0.48 0.59 0.62 0.62 0.68 0.66
0.98 1.12 1.33 1.55 1.83 1.48 0.94 0.89 0.88 0.95 0.99 0.95 0.99 0.95 0.97 1.05 1.12 1.24 1.38 1.43 1.44 1.40 1.52 1.56 1.48 1.40 1.42 1.38 1.26 1.16 1.06 0.89 0.78 0.74 0.74 0.73 0.67 0.56 0.50 0.55 0.58 0.62 0.67 0.64
1.09 0.94 1.16 1.35 1.43 1.16 0.90 0.82 0.77 0.67 0.66 0.71 0.85 0.88 0.86 0.85 0.85 0.97 1.10 1.20 1.24 1.22 1.21 1.22 1.18 1.09 1.05 1.05 1.00 0.91 0.79 0.76 0.76 0.78 0.76 0.74 0.68 0.57 0.50 0.53 0.50 0.51 0.54 0.55
1.07 1.05 1.24 1.42 1.42 1.21 1.02 0.85 0.72 0.64 0.62 0.69 0.73 0.72 0.69 0.64 0.65 0.68 0.81 0.90 0.95 0.95 0.92 0.92 0.96 0.91 0.81 0.76 0.76 0.73 0.67 0.65 0.73 0.74 0.69 0.65 0.58 0.55 0.53 0.47 0.36 0.35 0.36 0.35
0.91 1.04 1.30 1.49 1.29 1.21 1.09 0.84 0.67 0.63 0.63 0.59 0.56 0.53 0.56 0.56 0.56 0.58 0.70 0.78 0.80 0.79 0.78 0.82 0.84 0.79 0.73 0.69 0.65 0.61 0.54 0.53 0.64 0.68 0.65 0.57 0.51 0.49 0.46 0.49 0.40 0.31 0.28 0.26

GEFSCGP_prec_meanprecacc_264.txt.gz
Total_Precipitation_Accumulation
0.01 0.03 0.04 0.05 0.08 0.10 0.10 0.18 0.23 0.24 0.25 0.31 0.42 0.57 0.76 0.85 1.02 1.15 1.19 1.26 1.37 1.55 1.96 2.36 2.94 3.83 4.33 5.00 4.99 4.58 4.19 3.99 3.93 3.86 3.82 3.85 3.94 4.10 4.21 4.12 3.85 3.73 3.65 3.64
0.02 0.03 0.02 0.03 0.06 0.07 0.08 0.13 0.18 0.26 0.32 0.38 0.55 0.69 0.89 1.00 1.09 1.19 1.19 1.33 1.32 1.44 2.09 2.70 3.16 3.62 3.88 4.02 4.30 4.62 4.58 4.49 4.20 4.11 4.35 4.77 4.97 4.90 4.93 4.86 4.74 4.53 4.35 4.27
0.02 0.03 0.02 0.03 0.05 0.05 0.08 0.11 0.14 0.26 0.37 0.53 0.76 1.02 1.12 1.18 1.33 1.30 1.21 1.26 1.31 1.47 1.86 2.48 3.01 3.36 3.73 3.99 4.09 4.36 4.49 4.64 4.78 4.93 5.11 5.51 5.78 5.64 5.38 4.97 4.78 4.58 4.29 4.17
0.01 0.01 0.02 0.04 0.05 0.06 0.09 0.08 0.13 0.21 0.34 0.59 0.77 1.21 1.36 1.36 1.45 1.47 1.50 1.47 1.46 1.62 1.84 2.18 2.57 2.81 3.16 3.42 3.71 4.01 4.21 4.46 4.96 5.66 5.98 6.00 6.03 5.86 5.53 5.14 4.78 4.44 4.14 3.90
0.02 0.01 0.03 0.04 0.05 0.05 0.06 0.07 0.11 0.18 0.29 0.56 0.65 0.99 1.49 1.54 1.61 1.61 1.65 1.68 1.67 1.68 1.82 1.98 2.02 2.30 2.71 2.91 3.13 3.54 3.98 4.43 5.10 5.66 5.96 6.16 6.05 5.79 5.48 5.00 4.62 4.23 3.92 3.60
0.03 0.03 0.03 0.05 0.06 0.05 0.06 0.10 0.17 0.22 0.37 0.69 0.59 0.80 1.52 1.74 1.72 1.60 1.61 1.72 1.69 1.62 1.68 1.77 1.88 2.02 2.26 2.49 2.73 3.00 3.60 4.31 4.76 5.16 5.48 5.62 5.67 5.54 5.20 4.73 4.38 4.02 3.71 3.38
0.07 0.06 0.04 0.05 0.07 0.08 0.12 0.29 0.55 0.68 0.78 0.74 0.48 0.83 1.62 1.83 1.78 1.69 1.69 1.86 1.71 1.49 1.54 1.78 1.85 1.97 2.18 2.41 2.74 3.02 3.42 3.98 4.30 4.41 4.59 4.85 4.98 4.92 4.79 4.58 4.24 3.84 3.37 2.92
0.16 0.14 0.07 0.06 0.09 0.12 0.14 0.29 0.65 0.89 0.87 0.80 0.76 1.33 1.85 1.88 1.77 1.69 1.64 1.73 1.72 1.64 1.70 1.77 1.81 1.92 2.17 2.35 2.48 2.81 3.04 3.55 3.82 3.73 3.84 4.08 4.25 4.21 4.08 3.86 3.45 3.07 2.73 2.44
0.22 0.20 0.08 0.07 0.09 0.10 0.16 0.24 0.33 0.56 0.63 0.85 1.26 1.80 2.16 2.17 2.06 1.93 1.80 1.68 1.65 1.63 1.68 1.76 1.72 1.78 1.96 2.13 2.30 2.42 2.53 2.90 3.19 3.16 3.20 3.23 3.20 3.17 3.07 2.91 2.64 2.38 2.13 1.89
0.15 0.21 0.12 0.10 0.12 0.15 0.18 0.22 0.33 0.61 0.87 1.16 1.43 2.02 2.65 2.60 2.34 2.08 1.92 1.65 1.64 1.55 1.53 1.62 1.65 1.67 1.60 1.66 1.91 2.12 2.12 2.22 2.36 2.37 2.42 2.43 2.45 2.50 2.42 2.17 1.97 1.87 1.77 1.60
0.14 0.24 0.20 0.18 0.22 0.25 0.26 0.29 0.32 0.50 0.65 1.03 1.47 2.04 2.24 2.39 2.26 2.02 1.84 1.64 1.51 1.44 1.49 1.56 1.60 1.58 1.44 1.35 1.43 1.70 1.85 1.81 1.86 1.98 2.05 1.98 1.95 1.90 1.85 1.74 1.59 1.55 1.48 1.38
0.19 0.29 0.36 0.29 0.23 0.20 0.24 0.29 0.35 0.61 0.67 0.79 1.26 2.01 2.04 2.29 2.33 2.20 1.95 1.76 1.74 1.62 1.60 1.59 1.70 1.58 1.46 1.44 1.44 1.51 1.62 1.65 1.62 1.64 1.79 1.84 1.74 1.59 1.54 1.46 1.39 1.31 1.24 1.20
0.23 0.42 0.66 0.72 0.54 0.35 0.29 0.30 0.34 0.41 0.58 0.82 1.35 2.14 2.17 2.18 2.24 2.17 1.93 1.85 1.88 1.85 1.82 1.75 1.70 1.57 1.50 1.51 1.43 1.36 1.40 1.44 1.44 1.41 1.47 1.51 1.46 1.36 1.30 1.27 1.29 1.19 1.12 1.07
0.24 0.45 0.75 1.08 0.91 0.56 0.43 0.36 0.37 0.46 0.73 0.91 1.24 1.75 2.07 2.04 2.12 2.21 2.10 1.88 1.85 1.88 1.85 1.73 1.70 1.63 1.57 1.53 1.42 1.36 1.31 1.24 1.19 1.22 1.26 1.28 1.30 1.27 1.20 1.13 1.12 1.10 1.07 1.05
0.33 0.54 0.52 0.53 0.51 0.49 0.45 0.42 0.42 0.52 0.62 0.95 1.27 1.68 2.04 1.97 2.11 2.36 2.31 2.12 1.96 1.91 1.89 1.78 1.77 1.75 1.70 1.66 1.54 1.42 1.32 1.28 1.22 1.18 1.13 1.17 1.24 1.25 1.20 1.19 1.16 1.11 1.04 0.99
0.38 0.53 0.54 0.49 0.43 0.46 0.51 0.53 0.48 0.52 0.65 0.96 1.32 1.83 1.97 1.99 2.07 2.19 2.31 2.21 2.05 2.02 2.08 2.11 2.11 2.06 1.98 1.89 1.71 1.54 1.42 1.31 1.23 1.21 1.17 1.18 1.19 1.15 1.14 1.13 1.09 1.08 1.02 0.98
0.38 0.54 0.67 0.61 0.42 0.65 0.98 0.82 0.73 0.73 0.82 1.07 1.42 1.66 1.67 1.79 2.00 2.07 2.17 2.29 2.22 2.28 2.40 2.47 2.42 2.33 2.17 2.06 1.95 1.78 1.61 1.48 1.41 1.33 1.22 1.20 1.17 1.08 1.04 0.97 0.96 1.01 1.01 0.95
0.42 0.56 0.65 0.71 0.79 1.33 1.28 0.84 0.79 0.90 1.03 1.12 1.21 1.26 1.48 1.71 1.87 1.92 2.12 2.36 2.40 2.38 2.30 2.34 2.31 2.31 2.21 2.09 1.97 1.81 1.61 1.50 1.38 1.28 1.17 1.13 1.10 1.04 1.02 1.01 1.00 0.99 0.96 0.91
0.29 0.50 0.74 0.90 1.23 1.39 1.31 0.91 0.92 1.11 1.39 1.21 1.22 1.21 1.37 1.49 1.68 2.02 2.10 2.21 2.42 2.30 2.17 2.21 2.26 2.27 2.22 2.11 1.93 1.75 1.60 1.46 1.37 1.26 1.10 1.00 0.96 0.90 0.90 0.95 0.96 0.92 0.90 0.85
0.31 0.44 0.84 1.09 1.43 1.69 1.55 0.91 0.75 1.14 2.01 1.53 1.40 1.39 1.40 1.52 1.95 2.08 1.91 1.86 1.95 2.02 2.11 2.19 2.28 2.31 2.24 2.13 1.84 1.67 1.51 1.34 1.19 1.03 0.91 0.87 0.87 0.81 0.81 0.84 0.84 0.81 0.83 0.83
0.72 0.75 0.93 1.21 1.62 1.75 1.12 0.70 0.79 1.61 2.07 1.64 1.53 1.45 1.49 1.69 1.85 1.69 1.59 1.66 1.77 1.93 2.06 2.13 2.12 2.10 2.06 1.97 1.74 1.63 1.46 1.30 1.05 0.86 0.78 0.80 0.80 0.73 0.70 0.74 0.75 0.75 0.73 0.76
1.02 1.18 1.26 1.39 1.78 1.91 0.94 0.74 1.10 1.41 1.21 1.18 1.20 1.17 1.20 1.30 1.35 1.39 1.45 1.49 1.54 1.66 1.83 1.93 1.96 1.93 1.82 1.71 1.57 1.45 1.32 1.10 0.90 0.78 0.74 0.78 0.78 0.58 0.51 0.61 0.64 0.66 0.72 0.73
0.99 1.14 1.36 1.59 1.89 1.54 0.98 0.92 0.91 0.97 1.00 0.96 1.01 0.97 0.99 1.07 1.14 1.27 1.42 1.47 1.47 1.43 1.55 1.59 1.50 1.43 1.45 1.41 1.29 1.18 1.08 0.92 0.80 0.76 0.76 0.74 0.68 0.58 0.52 0.56 0.59 0.64 0.70 0.67
1.11 0.95 1.18 1.40 1.48 1.22 0.96 0.85 0.80 0.71 0.69 0.74 0.87 0.90 0.88 0.88 0.86 0.98 1.12 1.22 1.27 1.24 1.24 1.24 1.20 1.12 1.08 1.07 1.01 0.92 0.80 0.77 0.78 0.80 0.78 0.75 0.69 0.58 0.51 0.54 0.51 0.54 0.58 0.57
1.09 1.07 1.27 1.46 1.47 1.27 1.07 0.88 0.75 0.69 0.67 0.73 0.77 0.76 0.71 0.66 0.67 0.70 0.83 0.92 0.96 0.98 0.95 0.94 0.98 0.94 0.83 0.78 0.76 0.74 0.68 0.66 0.74 0.76 0.70 0.67 0.59 0.56 0.54 0.48 0.37 0.36 0.37 0.36
0.94 1.06 1.33 1.53 1.34 1.26 1.13 0.87 0.70 0.68 0.67 0.64 0.62 0.59 0.60 0.58 0.59 0.62 0.74 0.81 0.83 0.81 0.80 0.84 0.87 0.82 0.75 0.70 0.66 0.62 0.55 0.55 0.65 0.70 0.66 0.59 0.52 0.50 0.47 0.49 0.40 0.31 0.28 0.26

GEFSCGP_prec_meanprecacc_270.txt.gz
Total_Precipitation_Accumulation
0.01 0.03 0.04 0.05 0.09 0.11 0.11 0.18 0.24 0.24 0.25 0.31 0.43 0.59 0.78 0.87 1.05 1.19 1.23 1.29 1.40 1.57 1.99 2.40 3.04 4.01 4.40 5.04 5.03 4.63 4.25 4.07 3.99 3.90 3.87 3.89 3.99 4.14 4.27 4.19 3.90 3.79 3.71 3.68
0.02 0.03 0.02 0.03 0.07 0.08 0.09 0.14 0.18 0.27 0.33 0.39 0.57 0.71 0.90 1.02 1.12 1.22 1.21 1.34 1.33 1.46 2.12 2.73 3.21 3.69 3.94 4.09 4.36 4.68 4.65 4.57 4.27 4.16 4.40 4.82 5.04 4.95 4.98 4.90 4.78 4.60 4.41 4.33
0.02 0.03 0.02 0.03 0.05 0.05 0.08 0.11 0.14 0.27 0.39 0.55 0.79 1.04 1.13 1.20 1.34 1.31 1.22 1.27 1.32 1.49 1.88 2.50 3.03 3.40 3.80 4.09 4.17 4.43 4.54 4.71 4.88 5.01 5.17 5.58 5.85 5.70 5.43 5.03 4.85 4.67 4.36 4.23
0.02 0.01 0.02 0.04 0.05 0.06 0.09 0.09 0.14 0.23 0.38 0.61 0.80 1.23 1.37 1.37 1.45 1.48 1.51 1.49 1.48 1.64 1.86 2.19 2.59 2.84 3.20 3.47 3.77 4.08 4.27 4.52 5.04 5.75 6.05 6.06 6.09 5.92 5.58 5.21 4.87 4.52 4.21 3.96
0.02 0.02 0.03 0.04 0.05 0.05 0.06 0.08 0.13 0.21 0.31 0.57 0.67 1.00 1.49 1.54 1.62 1.62 1.66 1.70 1.69 1.70 1.84 1.99 2.04 2.32 2.73 2.95 3.17 3.60 4.04 4.51 5.16 5.73 6.04 6.23 6.11 5.85 5.54 5.06 4.70 4.32 3.98 3.65
0.03 0.03 0.03 0.05 0.06 0.05 0.06 0.10 0.18 0.23 0.37 0.69 0.59 0.80 1.52 1.74 1.73 1.61 1.62 1.73 1.70 1.63 1.69 1.79 1.90 2.05 2.29 2.53 2.78 3.05 3.65 4.36 4.81 5.21 5.53 5.68 5.72 5.59 5.27 4.79 4.44 4.08 3.74 3.42
0.07 0.06 0.04 0.05 0.07 0.08 0.13 0.29 0.57 0.68 0.78 0.74 0.49 0.83 1.62 1.84 1.79 1.70 1.70 1.87 1.71 1.50 1.55 1.79 1.86 1.99 2.23 2.47 2.80 3.09 3.49 4.04 4.36 4.48 4.65 4.90 5.04 5.01 4.88 4.65 4.31 3.89 3.41 2.95
0.16 0.14 0.07 0.06 0.09 0.12 0.15 0.29 0.67 0.90 0.88 0.80 0.76 1.34 1.86 1.88 1.78 1.71 1.65 1.74 1.73 1.65 1.70 1.78 1.82 1.94 2.20 2.40 2.56 2.90 3.13 3.62 3.89 3.79 3.89 4.14 4.33 4.30 4.17 3.94 3.51 3.11 2.75 2.45
0.22 0.20 0.08 0.08 0.09 0.10 0.16 0.24 0.34 0.56 0.64 0.87 1.27 1.81 2.16 2.18 2.07 1.93 1.81 1.70 1.66 1.64 1.69 1.78 1.75 1.80 1.99 2.16 2.34 2.49 2.63 2.98 3.26 3.22 3.25 3.30 3.30 3.29 3.18 2.99 2.69 2.41 2.14 1.90
0.16 0.21 0.12 0.10 0.12 0.15 0.18 0.22 0.33 0.62 0.88 1.17 1.44 2.03 2.65 2.60 2.34 2.09 1.92 1.67 1.66 1.56 1.55 1.64 1.69 1.70 1.63 1.68 1.93 2.16 2.18 2.29 2.43 2.45 2.49 2.51 2.54 2.61 2.51 2.23 2.00 1.89 1.78 1.61
0.15 0.24 0.21 0.19 0.22 0.25 0.26 0.29 0.33 0.50 0.66 1.04 1.48 2.04 2.24 2.39 2.26 2.02 1.84 1.65 1.53 1.46 1.50 1.58 1.63 1.62 1.48 1.38 1.46 1.73 1.88 1.86 1.92 2.06 2.13 2.04 2.03 1.97 1.91 1.79 1.62 1.57 1.49 1.39
0.19 0.30 0.37 0.29 0.23 0.21 0.25 0.29 0.36 0.62 0.67 0.79 1.26 2.01 2.04 2.30 2.34 2.20 1.95 1.77 1.75 1.63 1.61 1.62 1.72 1.61 1.49 1.47 1.47 1.53 1.64 1.68 1.66 1.69 1.85 1.89 1.80 1.64 1.57 1.49 1.43 1.34 1.26 1.21
0.23 0.43 0.67 0.72 0.55 0.35 0.30 0.31 0.35 0.42 0.58 0.83 1.35 2.14 2.17 2.19 2.24 2.18 1.93 1.86 1.90 1.88 1.85 1.77 1.72 1.59 1.52 1.53 1.45 1.37 1.41 1.46 1.47 1.46 1.52 1.54 1.48 1.39 1.32 1.28 1.30 1.21 1.14 1.09
0.25 0.46 0.75 1.09 0.92 0.57 0.45 0.37 0.38 0.47 0.73 0.92 1.24 1.75 2.08 2.04 2.12 2.22 2.11 1.90 1.87 1.90 1.88 1.75 1.72 1.65 1.58 1.55 1.43 1.36 1.33 1.26 1.21 1.25 1.29 1.30 1.31 1.29 1.22 1.14 1.12 1.10 1.08 1.06
0.35 0.55 0.52 0.53 0.52 0.51 0.47 0.43 0.43 0.53 0.63 0.96 1.27 1.68 2.04 1.97 2.12 2.37 2.33 2.15 1.98 1.94 1.92 1.80 1.78 1.78 1.73 1.68 1.55 1.43 1.34 1.29 1.23 1.19 1.15 1.19 1.25 1.26 1.21 1.20 1.17 1.11 1.04 0.99
0.39 0.54 0.54 0.49 0.43 0.47 0.52 0.54 0.49 0.53 0.66 0.96 1.33 1.83 1.97 2.00 2.07 2.20 2.32 2.23 2.06 2.04 2.10 2.12 2.12 2.07 2.00 1.91 1.73 1.55 1.43 1.32 1.24 1.22 1.18 1.19 1.20 1.16 1.15 1.15 1.12 1.08 1.02 0.99
0.39 0.55 0.68 0.61 0.42 0.65 0.98 0.83 0.74 0.74 0.83 1.08 1.43 1.67 1.68 1.80 2.01 2.09 2.19 2.31 2.23 2.30 2.42 2.49 2.43 2.33 2.18 2.07 1.98 1.80 1.64 1.50 1.42 1.34 1.23 1.20 1.18 1.09 1.05 0.98 0.97 1.02 1.01 0.95
0.42 0.56 0.66 0.71 0.79 1.34 1.28 0.85 0.80 0.91 1.05 1.14 1.23 1.27 1.49 1.72 1.88 1.94 2.13 2.38 2.42 2.39 2.32 2.35 2.32 2.31 2.22 2.10 1.99 1.83 1.65 1.52 1.40 1.29 1.18 1.13 1.11 1.05 1.03 1.02 1.01 1.00 0.97 0.92
0.30 0.50 0.75 0.90 1.23 1.40 1.32 0.92 0.93 1.13 1.42 1.23 1.24 1.23 1.37 1.50 1.69 2.03 2.11 2.23 2.44 2.31 2.19 2.23 2.28 2.29 2.23 2.12 1.94 1.77 1.62 1.48 1.39 1.28 1.11 1.01 0.97 0.91 0.91 0.96 0.97 0.94 0.92 0.87
0.32 0.45 0.85 1.10 1.44 1.69 1.55 0.92 0.76 1.15 2.04 1.56 1.43 1.42 1.42 1.54 1.97 2.10 1.92 1.87 1.96 2.04 2.13 2.21 2.31 2.34 2.25 2.14 1.85 1.68 1.53 1.36 1.21 1.04 0.93 0.89 0.90 0.83 0.83 0.85 0.85 0.83 0.84 0.85
0.73 0.77 0.95 1.22 1.64 1.77 1.13 0.71 0.80 1.62 2.08 1.66 1.55 1.49 1.53 1.74 1.89 1.72 1.61 1.68 1.79 1.95 2.08 2.16 2.15 2.14 2.09 1.99 1.75 1.64 1.47 1.31 1.07 0.88 0.80 0.83 0.84 0.77 0.74 0.76 0.77 0.77 0.74 0.77
1.04 1.20 1.27 1.41 1.80 1.93 0.95 0.75 1.11 1.42 1.22 1.18 1.21 1.19 1.23 1.34 1.40 1.43 1.49 1.52 1.56 1.67 1.85 1.95 2.00 1.97 1.85 1.73 1.58 1.46 1.33 1.12 0.92 0.81 0.78 0.82 0.82 0.63 0.55 0.65 0.67 0.68 0.74 0.74
1.01 1.16 1.37 1.61 1.91 1.56 1.00 0.93 0.92 0.99 1.01 0.97 1.02 0.99 1.01 1.09 1.16 1.29 1.44 1.50 1.50 1.46 1.58 1.62 1.53 1.46 1.48 1.44 1.31 1.20 1.10 0.93 0.82 0.78 0.79 0.78 0.74 0.65 0.58 0.61 0.63 0.67 0.72 0.69
1.11 0.97 1.20 1.41 1.49 1.23 0.97 0.87 0.82 0.73 0.72 0.76 0.89 0.92 0.89 0.89 0.88 1.00 1.13 1.24 1.29 1.25 1.25 1.26 1.22 1.15 1.12 1.11 1.04 0.94 0.82 0.79 0.79 0.80 0.79 0.77 0.73 0.65 0.59 0.60 0.56 0.58 0.61 0.60
1.11 1.09 1.29 1.47 1.47 1.28 1.08 0.90 0.77 0.72 0.70 0.77 0.80 0.79 0.74 0.67 0.68 0.71 0.85 0.94 0.98 0.99 0.96 0.96 1.00 0.96 0.85 0.79 0.78 0.76 0.69 0.67 0.75 0.76 0.71 0.69 0.62 0.59 0.57 0.52 0.40 0.39 0.40 0.40
0.98 1.12 1.37 1.55 1.35 1.28 1.15 0.88 0.72 0.70 0.69 0.66 0.64 0.62 0.64 0.62 0.61 0.64 0.76 0.83 0.84 0.83 0.82 0.87 0.89 0.85 0.77 0.72 0.68 0.63 0.56 0.56 0.66 0.70 0.67 0.61 0.55 0.53 0.49 0.51 0.42 0.33 0.30 0.29